CW3077 Weather Reports


Display with metric or nautical units.
time (UTC)temp
F
wind
direction
speed
MPH
gust
MPH
rain 1hr
in
rain 24hr
in
rain mn
in
humidity
%
barometer
mb
20260503014016 64 0.0 1.0 0.00 0.00 0.00 60 1021.3
20260503013517 64 0.0 1.0 0.00 0.00 0.00 60 1021.3
20260503013016 65 0.0 2.0 0.00 0.00 0.00 59 1021.3
20260503012516 65 0.0 1.0 0.00 0.00 0.00 58 1021.2
20260503012016 66 0.0 1.0 0.00 0.00 0.00 57 1021.1
20260503011516 66 0.0 1.0 0.00 0.00 0.00 57 1020.9
20260503011016 66 0.0 1.0 0.00 0.00 0.00 57 1020.9
20260503010516 67 0.0 1.0 0.00 0.00 0.00 55 1020.9
20260503010016 68 0.0 1.0 0.00 0.00 0.00 54 1021.0
20260503005516 68 90 1.0 2.0 0.00 0.00 0.00 51 1020.9
20260503005016 69 90 1.0 5.0 0.00 0.00 0.00 50 1021.0
20260503004537 69 90 1.0 5.0 0.00 0.00 0.00 49 1020.9
20260503004036 70 90 2.0 8.0 0.00 0.00 0.00 48 1020.9
20260503003516 70 113 2.0 5.0 0.00 0.00 0.00 47 1020.9
20260503003016 70 113 2.0 5.0 0.00 0.00 0.00 46 1021.0
20260503002516 70 90 3.0 5.0 0.00 0.00 0.00 46 1020.9
20260503002016 71 113 2.0 6.0 0.00 0.00 0.00 47 1020.8
20260503001516 71 90 2.0 4.0 0.00 0.00 0.00 46 1020.8
20260503001036 71 90 3.0 7.0 0.00 0.00 0.00 44 1020.7
20260503000516 72 68 3.0 8.0 0.00 0.00 0.00 43 1020.6
20260503000036 72 68 2.0 9.0 0.00 0.00 0.00 42 1020.8
20260502235516 72 90 3.0 6.0 0.00 0.00 0.00 41 1020.6
20260502235036 72 90 4.0 10.0 0.00 0.00 0.00 41 1020.6
20260502234516 72 45 4.0 10.0 0.00 0.00 0.00 41 1020.8
20260502234016 72 45 3.0 9.0 0.00 0.00 0.00 41 1020.8
20260502233516 72 45 3.0 6.0 0.00 0.00 0.00 41 1020.8
20260502233016 72 45 3.0 8.0 0.00 0.00 0.00 41 1020.8
20260502232516 72 68 2.0 6.0 0.00 0.00 0.00 40 1020.8
20260502232016 72 23 5.0 10.0 0.00 0.00 0.00 39 1020.7
20260502231516 72 90 2.0 8.0 0.00 0.00 0.00 41 1020.7
20260502231036 73 90 3.0 6.0 0.00 0.00 0.00 40 1020.8
20260502230516 73 90 5.0 10.0 0.00 0.00 0.00 41 1020.7
20260502230016 73 45 3.0 7.0 0.00 0.00 0.00 42 1020.7
20260502225516 73 45 1.0 6.0 0.00 0.00 0.00 41 1020.6
20260502225016 73 23 3.0 6.0 0.00 0.00 0.00 41 1020.8
20260502224516 73 90 1.0 5.0 0.00 0.00 0.00 40 1020.7
20260502224016 73 68 4.0 8.0 0.00 0.00 0.00 40 1020.7
20260502223516 73 68 2.0 9.0 0.00 0.00 0.00 40 1020.9
20260502223016 74 23 5.0 10.0 0.00 0.01 0.00 40 1020.9
20260502222516 74 0 3.0 7.0 0.00 0.01 0.00 42 1020.9
20260502222016 74 90 2.0 5.0 0.00 0.02 0.00 42 1021.0
20260502221536 74 45 3.0 11.0 0.00 0.02 0.00 39 1021.0
20260502221016 74 68 5.0 11.0 0.00 0.02 0.00 41 1021.0
20260502220516 74 45 3.0 13.0 0.00 0.03 0.00 40 1021.1
20260502220016 74 45 4.0 8.0 0.00 0.04 0.00 39 1021.0
20260502215516 74 23 5.0 9.0 0.00 0.06 0.00 39 1021.2
20260502215016 74 23 5.0 10.0 0.00 0.07 0.00 42 1021.1
20260502214536 74 23 5.0 10.0 0.00 0.08 0.00 41 1021.2
20260502214016 74 0 5.0 11.0 0.00 0.08 0.00 40 1021.3
20260502213556 74 23 5.0 11.0 0.00 0.08 0.00 41 1021.3
20260502213016 73 45 2.0 8.0 0.00 0.09 0.00 42 1021.4
20260502212537 74 45 2.0 5.0 0.00 0.10 0.00 41 1021.4
20260502212016 75 45 5.0 12.0 0.00 0.10 0.00 40 1021.7
20260502211516 74 23 2.0 9.0 0.00 0.10 0.00 41 1021.5
20260502211116 75 68 4.0 10.0 0.00 0.10 0.00 37 1021.6
20260502210516 75 45 4.0 9.0 0.00 0.10 0.00 39 1021.8
20260502210016 75 68 2.0 9.0 0.00 0.10 0.00 40 1021.9
20260502205516 75 68 6.0 13.0 0.00 0.10 0.00 41 1022.0
20260502205016 75 90 5.0 12.0 0.00 0.10 0.00 39 1022.0
20260502204516 75 45 6.0 12.0 0.00 0.10 0.00 36 1022.1
20260502204016 75 45 5.0 12.0 0.00 0.10 0.00 37 1022.1
20260502203516 76 90 6.0 14.0 0.00 0.10 0.00 36 1022.1
20260502203016 77 90 4.0 10.0 0.00 0.10 0.00 37 1022.1
20260502202516 77 90 4.0 12.0 0.00 0.11 0.00 38 1022.2
20260502202056 76 90 5.0 10.0 0.00 0.11 0.00 36 1022.2
20260502201516 76 68 6.0 13.0 0.00 0.11 0.00 37 1022.2
20260502201015 76 45 6.0 14.0 0.00 0.11 0.00 37 1022.3
20260502200516 76 45 6.0 16.0 0.00 0.11 0.00 32 1022.3
20260502200015 77 68 4.0 11.0 0.00 0.11 0.00 38 1022.3
20260502195536 76 45 5.0 14.0 0.00 0.11 0.00 38 1022.2
20260502195016 76 0 3.0 9.0 0.00 0.11 0.00 41 1022.3
20260502194515 76 90 5.0 13.0 0.00 0.12 0.00 40 1022.2
20260502194015 76 45 3.0 11.0 0.00 0.12 0.00 40 1022.2
20260502193516 75 0 4.0 11.0 0.00 0.13 0.00 41 1022.5
20260502193016 75 23 5.0 13.0 0.00 0.14 0.00 42 1022.4
20260502192516 75 45 6.0 12.0 0.00 0.14 0.00 40 1022.5
20260502192015 75 23 5.0 12.0 0.00 0.14 0.00 41 1022.4
20260502191536 75 45 4.0 9.0 0.00 0.14 0.00 41 1022.5
20260502191015 74 23 6.0 12.0 0.00 0.14 0.00 39 1022.4
20260502190516 74 23 7.0 15.0 0.00 0.14 0.00 43 1022.6
20260502190036 74 23 7.0 12.0 0.00 0.14 0.00 42 1022.6
20260502185515 74 23 5.0 10.0 0.00 0.14 0.00 43 1022.6
20260502185015 74 23 6.0 14.0 0.00 0.14 0.00 45 1022.7
20260502184516 74 45 3.0 10.0 0.00 0.14 0.00 45 1022.8
20260502184015 72 23 2.0 11.0 0.00 0.15 0.00 49 1022.8
20260502183516 74 23 5.0 12.0 0.00 0.16 0.00 45 1022.9
20260502183015 73 23 5.0 13.0 0.00 0.17 0.00 48 1023.0
20260502182515 73 45 3.0 8.0 0.00 0.19 0.00 48 1023.1
20260502182036 73 23 6.0 10.0 0.00 0.22 0.00 48 1023.3
20260502181515 71 23 3.0 10.0 0.00 0.27 0.00 50 1023.3
20260502181015 72 315 4.0 9.0 0.00 0.32 0.00 49 1023.5
20260502180535 72 0 4.0 12.0 0.00 0.38 0.00 52 1023.6
20260502170515 70 23 4.0 8.0 0.00 0.45 0.00 53 1024.3
20260502164016 69 45 4.0 11.0 0.00 0.45 0.00 57 1024.6
20260502163515 68 45 6.0 14.0 0.00 0.45 0.00 55 1024.5
20260502163015 68 23 6.0 13.0 0.00 0.45 0.00 56 1024.5
20260502162515 68 23 4.0 12.0 0.00 0.45 0.00 59 1024.5
20260502162015 67 23 5.0 11.0 0.00 0.45 0.00 59 1024.6
20260502161515 67 23 4.0 9.0 0.00 0.45 0.00 60 1024.6
20260502161015 67 0 5.0 11.0 0.00 0.45 0.00 57 1024.5
20260502160515 67 0 4.0 11.0 0.00 0.45 0.00 57 1024.6
20260502152015 63 23 5.0 10.0 0.00 0.52 0.00 66 1024.3
20260502151535 63 0 3.0 8.0 0.00 0.53 0.00 69 1024.3
20260502151015 62 0 3.0 7.0 0.00 0.54 0.00 70 1024.3
20260502150515 62 45 4.0 9.0 0.00 0.55 0.00 68 1024.3
20260502130515 51 293 1.0 4.0 0.00 0.73 0.00 80 1022.8
20260502123617 49 0.0 2.0 0.00 0.73 0.00 81 1022.1
20260502123017 49 270 1.0 3.0 0.00 0.73 0.00 81 1022.2
20260502122517 49 248 1.0 4.0 0.00 0.73 0.00 81 1022.0
20260502122016 48 248 1.0 3.0 0.00 0.73 0.00 81 1021.8
20260502121517 48 225 1.0 4.0 0.00 0.73 0.00 81 1021.8
20260502121017 48 225 1.0 5.0 0.00 0.73 0.00 81 1021.7
20260502120517 48 225 1.0 3.0 0.00 0.73 0.00 82 1021.7
20260502115517 48 270 1.0 3.0 0.00 0.76 0.00 82 1021.4
20260502115057 48 270 1.0 3.0 0.00 0.77 0.00 82 1021.4
20260502114516 48 0.0 2.0 0.00 0.78 0.00 82 1021.3
20260502114017 48 270 1.0 3.0 0.00 0.78 0.00 82 1021.2
20260502113517 48 0.0 2.0 0.00 0.78 0.00 82 1021.2
20260502113017 48 0.0 2.0 0.00 0.79 0.00 83 1021.2
20260502112516 49 270 1.0 3.0 0.00 0.79 0.00 82 1021.1
20260502112016 49 0 1.0 4.0 0.00 0.80 0.00 82 1021.1
20260502111555 49 0 1.0 3.0 0.00 0.82 0.00 83 1021.1
20260502111036 49 0.0 2.0 0.00 0.83 0.00 83 1021.0
20260502110517 48 0.0 2.0 0.00 0.84 0.00 83 1020.9
20260502110016 48 0 1.0 2.0 0.00 0.85 0.00 83 1020.8
20260502105517 49 0 1.0 2.0 0.00 0.85 0.00 83 1020.7
20260502105017 49 0 1.0 3.0 0.00 0.85 0.00 83 1020.5
20260502104516 49 0.0 2.0 0.00 0.86 0.00 83 1020.3
20260502104016 49 0 1.0 3.0 0.00 0.86 0.00 83 1020.3
20260502103517 49 0 1.0 4.0 0.00 0.87 0.00 83 1020.3
20260502103016 49 0 1.0 4.0 0.00 0.89 0.00 83 1020.2
20260502102537 49 0 2.0 5.0 0.00 0.91 0.00 83 1020.0
20260502102037 49 23 2.0 5.0 0.00 0.92 0.00 82 1020.0
20260502101536 49 0 3.0 7.0 0.00 0.93 0.00 82 1019.9
20260502101016 49 0 2.0 7.0 0.00 0.94 0.00 82 1019.9
20260502100516 49 23 3.0 7.0 0.00 0.95 0.00 82 1019.9
20260502091516 49 338 1.0 6.0 0.00 0.97 0.00 81 1019.8
20260502091036 49 338 1.0 3.0 0.00 0.97 0.00 81 1019.6
20260502090516 49 338 1.0 3.0 0.00 0.98 0.00 81 1019.6
20260502071516 50 23 2.0 5.0 0.00 1.02 0.00 80 1019.6
20260502071017 50 23 2.0 5.0 0.00 1.02 0.00 80 1019.5
20260502070516 50 0 3.0 8.0 0.00 1.02 0.00 81 1019.5
20260502070016 50 0 2.0 5.0 0.00 1.02 0.00 81 1019.6
20260502065516 50 0 1.0 5.0 0.00 1.02 0.00 81 1019.6
20260502065036 50 0 1.0 3.0 0.00 1.02 0.00 81 1019.5
20260502064516 50 0 1.0 4.0 0.00 1.02 0.00 81 1019.4
20260502064016 50 23 1.0 3.0 0.00 1.02 0.00 81 1019.4
20260502063536 50 23 1.0 4.0 0.00 1.02 0.00 81 1019.4
20260502063036 51 23 1.0 3.0 0.00 1.02 0.00 81 1019.3
20260502062536 51 23 1.0 3.0 0.00 1.03 0.00 81 1019.3
20260502062036 51 23 1.0 2.0 0.00 1.03 0.00 81 1019.4
20260502061516 51 0.0 3.0 0.00 1.03 0.00 81 1019.4
20260502061016 51 23 1.0 2.0 0.00 1.03 0.00 81 1019.4
20260502060516 51 23 1.0 3.0 0.00 1.03 0.00 81 1019.4
20260502060016 51 23 2.0 5.0 0.00 1.03 0.00 81 1019.5
20260502055516 51 23 2.0 5.0 0.00 1.03 0.00 81 1019.5
20260502055016 51 0 2.0 4.0 0.00 1.03 0.00 81 1019.5
20260502054537 51 23 3.0 7.0 0.00 1.03 0.00 81 1019.6
20260502054016 51 0 2.0 5.0 0.00 1.03 0.00 81 1019.6
20260502053536 51 23 2.0 4.0 0.00 1.03 0.00 82 1019.6
20260502053016 52 23 2.0 4.0 0.00 1.03 0.00 82 1019.4
20260502052516 52 23 1.0 3.0 0.00 1.04 0.00 82 1019.3
20260502052016 52 23 1.0 4.0 0.00 1.04 0.00 82 1019.3
20260502051516 52 23 1.0 4.0 0.00 1.04 0.00 82 1019.4
20260502051036 52 23 1.0 3.0 0.00 1.04 0.00 82 1019.3
20260502050516 52 23 1.0 3.0 0.00 1.04 0.00 82 1019.1
20260502050016 52 23 1.0 3.0 0.00 1.04 1.04 82 1019.2
20260502045517 52 23 1.0 3.0 0.00 1.05 1.04 83 1019.1
20260502045016 52 23 1.0 3.0 0.00 1.06 1.04 83 1019.1
20260502044517 52 23 1.0 3.0 0.00 1.06 1.04 83 1019.2
20260502044017 53 23 1.0 3.0 0.00 1.06 1.04 83 1019.2
20260502043517 53 23 2.0 4.0 0.00 1.07 1.04 83 1019.1
20260502043017 53 0 3.0 5.0 0.00 1.07 1.04 83 1019.0
20260502042515 53 0 1.0 4.0 0.00 1.07 1.04 83 1018.9
20260502042017 53 0 1.0 3.0 0.00 1.07 1.04 84 1019.0
20260502041516 53 0 1.0 4.0 0.00 1.07 1.04 84 1019.1
20260502041017 53 0.0 3.0 0.00 1.07 1.04 84 1019.1
20260502040517 53 0 1.0 2.0 0.00 1.07 1.04 84 1019.1
20260502040017 54 0 1.0 4.0 0.00 1.07 1.04 84 1019.1
20260502035516 54 0 1.0 5.0 0.00 1.07 1.04 85 1019.1
20260502035017 54 0 1.0 7.0 0.00 1.08 1.04 85 1019.2
20260502034517 54 0 1.0 4.0 0.00 1.08 1.04 85 1019.1
20260502034017 54 23 3.0 7.0 0.00 1.09 1.04 85 1019.0
20260502033517 54 23 2.0 6.0 0.00 1.09 1.04 85 1019.0
20260502033038 54 0 3.0 7.0 0.00 1.09 1.04 85 1019.0
20260502032517 54 0 3.0 9.0 0.00 1.11 1.04 85 1019.0
20260502032017 54 23 2.0 8.0 0.00 1.13 1.04 85 1019.0
20260502031517 54 23 3.0 5.0 0.00 1.16 1.04 85 1018.9
20260502031037 54 23 3.0 9.0 0.00 1.17 1.04 85 1018.8
20260502030516 54 23 2.0 6.0 0.00 1.19 1.04 85 1018.8
20260502030016 54 23 3.0 8.0 0.00 1.22 1.04 85 1018.6
20260502025517 54 23 3.0 9.0 0.00 1.26 1.04 85 1018.4
20260502025017 54 23 2.0 8.0 0.00 1.30 1.04 85 1018.4
20260502024516 54 23 3.0 6.0 0.00 1.30 1.04 86 1018.5
20260502024016 54 23 4.0 8.0 0.00 1.30 1.04 86 1018.4
20260502023516 54 23 3.0 8.0 0.00 1.30 1.04 86 1018.4
20260502023016 54 23 4.0 9.0 0.00 1.30 1.04 86 1018.3
20260502022516 54 23 4.0 8.0 0.00 1.30 1.04 86 1018.1
20260502022016 54 23 5.0 12.0 0.00 1.30 1.04 86 1018.0
20260502021516 54 23 7.0 13.0 0.00 1.30 1.04 86 1018.1
20260502021016 53 23 7.0 17.0 0.00 1.30 1.04 86 1017.9
20260502020516 54 45 8.0 17.0 0.00 1.30 1.04 85 1017.8
20260502020016 54 23 5.0 12.0 0.00 1.30 1.04 85 1017.5
20260502015516 54 45 6.0 10.0 0.00 1.30 1.04 85 1017.5
20260502015016 54 45 5.0 11.0 0.00 1.30 1.04 85 1017.4
20260502014516 54 45 4.0 9.0 0.00 1.30 1.04 85 1017.5